DW8673 Jerrabomberra AU current weather conditions

sailwx.info

Wind from 180

Air temperature 15.6° C
Dewpoint -0.7° C

Last reported at 2015-May-25 06:48 UTC.
Time now 2015-May-25 07:22 UTC

Location: S 35°23' E 149°12'.
View on Google Maps.

See reports from other nearby stations

  
Tides and Currents Weather Stations Pressure Air Temp Water Temp Dewpoint Dewpoint Depression Visibility Wind Speed Wind Dir Waves Ship Positions
date/time (UTC)wind fromknots sea level pressurealtimeterstation pressurevisibilityair tempwater tempwave heightnotes
2015-May-25 06:48 180 15.6
2015-May-25 06:43 135 16.1
2015-May-25 06:38 135 16.7
2015-May-25 06:33 068 16.7
2015-May-25 06:18 248 17.2
2015-May-25 06:13 192 16.7
2015-May-25 06:08 135 16.1
2015-May-25 06:03 254 15.0
2015-May-25 05:48 162 16.7
2015-May-25 05:43 287 0 gusting 1 16.1
2015-May-25 05:38 253 0 gusting 1 15.0
2015-May-25 05:33 252 0 gusting 4 14.4
2015-May-25 05:18 263 0 gusting 4 14.4
2015-May-25 05:13 289 1 gusting 1 14.4
2015-May-25 05:08 276 0 gusting 1 14.4
2015-May-25 05:03 275 0 gusting 4 14.4
2015-May-25 04:48 336 1 gusting 1 14.4
2015-May-25 04:43 327 1 gusting 1 15.0
2015-May-25 04:38 295 1 gusting 2 15.0
2015-May-25 04:33 334 0 gusting 1 15.0
2015-May-25 04:18 15.0
2015-May-25 04:13 330 0 gusting 1 15.0
2015-May-25 04:08 170 0 gusting 1 15.6
2015-May-25 04:03 359 1 gusting 2 15.6
2015-May-25 03:48 122 1 gusting 2 16.1
2015-May-25 03:43 297 1 gusting 2 15.6
2015-May-25 03:38 285 1 gusting 4 15.6
2015-May-25 03:33 340 2 gusting 4 16.1
2015-May-25 03:18 312 1 gusting 2 15.0
2015-May-25 03:13 308 13.9
2015-May-25 03:08 314 1 gusting 2 13.9
2015-May-25 03:03 285 0 gusting 4 13.9
2015-May-25 02:48 325 1 gusting 2 12.8
2015-May-25 02:43 331 1 gusting 2 12.8
2015-May-25 02:38 356 1 gusting 1 12.8
2015-May-25 02:33 296 0 gusting 4 12.8
2015-May-25 02:18 292 1 gusting 2 13.3
2015-May-25 02:13 103 0 gusting 1 13.3
2015-May-25 02:08 286 2 gusting 2 13.3
2015-May-25 02:03 283 0 gusting 2 13.9
2015-May-25 01:48 309 1 gusting 4 13.9
2015-May-25 01:43 289 2 gusting 6 13.9
2015-May-25 01:38 327 0 gusting 2 13.9
2015-May-25 01:33 301 1 gusting 2 13.3
2015-May-25 01:18 275 1 gusting 1 12.8
2015-May-25 01:13 272 0 gusting 1 11.7
2015-May-25 01:08 289 1 gusting 4 11.7
2015-May-25 01:03 265 0 gusting 1 11.7
2015-May-25 00:48 310 10.6
2015-May-25 00:43 091 0 gusting 0 10.6
2015-May-25 00:38 058 0 gusting 0 10.6
2015-May-25 00:33 264 0 gusting 1 9.4
2015-May-25 00:18 309 0 gusting 1 8.9
2015-May-25 00:13 275 8.3
2015-May-25 00:08 205 0 gusting 0 7.8
2015-May-25 00:03 256 7.8
2015-May-24 23:48 255 2 gusting 4 6.1
2015-May-24 23:43 270 0 gusting 1 6.1
2015-May-24 23:38 248 1 gusting 2 5.6
2015-May-24 23:33 255 1 gusting 1 6.1
2015-May-24 23:18 278 0 gusting 1 5.6
2015-May-24 23:13 295 5.6
2015-May-24 23:08 286 0 gusting 1 5.6
2015-May-24 23:03 346 0 gusting 1 5.0
2015-May-24 22:48 338 3.9
2015-May-24 22:43 297 0 gusting 0 3.9
2015-May-24 22:38 130 3.3
2015-May-24 22:33 093 0 gusting 0 3.3
2015-May-24 22:18 135 2.8
2015-May-24 22:13 073 2.2
2015-May-24 22:08 090 2.2
2015-May-24 22:03 135 2.2
2015-May-24 21:48 266 0 gusting 1 1.7
2015-May-24 21:43 247 0 gusting 1 1.7
2015-May-24 21:38 236 1.7
2015-May-24 21:33 243 0 gusting 1 1.7
2015-May-24 21:18 102 1.1
2015-May-24 21:13 068 1.1
2015-May-24 21:08 068 1.1
2015-May-24 21:03 068 1.1
2015-May-24 20:48 248 0.6
2015-May-24 20:43 270 0.6
2015-May-24 20:38 112 0.6
2015-May-24 20:33 112 0.6
2015-May-24 20:18 338 0.6
2015-May-24 20:13 253 0.6
2015-May-24 20:08 270 0.6
2015-May-24 20:03 135 1.1
2015-May-24 19:48 270 1.1
2015-May-24 19:43 332 1.1
2015-May-24 19:38 090 1.1
2015-May-24 19:33 054 1.1
2015-May-24 19:18 292 1.1
2015-May-24 19:13 292 1.1
2015-May-24 19:08 292 0.6
2015-May-24 19:03 112 0.6
2015-May-24 18:48 090 0.6
2015-May-24 18:43 090 0.6
2015-May-24 18:38 090 0.6
2015-May-24 18:33 090 0.6
2015-May-24 18:18 045 1.1
2015-May-24 18:13 045 1.1
2015-May-24 18:08 045 0.6
2015-May-24 18:03 045 0.6
2015-May-24 17:48 202 0.6
2015-May-24 17:43 202 0.6
2015-May-24 17:38 248 0.6
2015-May-24 17:33 158 0.6
2015-May-24 17:18 092 0.6
2015-May-24 17:13 090 0.6
2015-May-24 17:08 090 0.6
2015-May-24 17:03 090 0.6
2015-May-24 16:43 135 0.6
2015-May-24 16:38 135 0.6
2015-May-24 16:18 135 0.6
2015-May-24 16:08 135 0.6
2015-May-24 16:03 135 0.6
2015-May-24 15:48 158 0.6
2015-May-24 15:43 158 0.6
2015-May-24 15:38 158 0.6
2015-May-24 15:33 188 0.6
2015-May-24 15:18 090 0.6
2015-May-24 15:13 112 0.6
2015-May-24 15:08 112 0.6
2015-May-24 15:03 112 0.6
2015-May-24 14:48 112 1.1
2015-May-24 14:43 112 1.1
2015-May-24 14:38 112 1.1
2015-May-24 14:33 112 1.1
2015-May-24 14:18 112 1.1
2015-May-24 14:13 112 1.1
2015-May-24 14:08 112 1.1
2015-May-24 14:03 112 1.1
2015-May-24 13:48 112 1.7
2015-May-24 13:43 112 1.7
2015-May-24 13:38 112 1.7
2015-May-24 13:33 112 1.7
2015-May-24 13:18 112 2.2
2015-May-24 13:13 090 2.2
2015-May-24 13:08 090 2.2
2015-May-24 13:03 090 2.2
2015-May-24 12:48 248 2.2
2015-May-24 12:43 112 2.8
2015-May-24 12:38 112 2.8
2015-May-24 12:33 112 2.8
2015-May-24 12:18 112 2.8
2015-May-24 12:13 112 2.8
2015-May-24 12:08 112 2.8
2015-May-24 12:03 112 2.8
2015-May-24 11:48 112 3.3
2015-May-24 11:43 112 3.3
2015-May-24 11:38 112 3.3
2015-May-24 11:33 022 3.3
2015-May-24 11:18 135 3.3
2015-May-24 11:13 112 3.9
2015-May-24 11:08 112 3.9
2015-May-24 11:03 112 3.9
2015-May-24 10:48 090 3.9
2015-May-24 10:43 090 3.9
2015-May-24 10:38 202 4.4
2015-May-24 10:33 135 4.4
2015-May-24 10:18 135 5.0
2015-May-24 10:13 135 5.0
2015-May-24 10:08 135 5.0
2015-May-24 10:03 135 5.0
2015-May-24 09:48 135 5.6
2015-May-24 09:43 135 5.6
2015-May-24 09:38 259 0 gusting 0 5.6
2015-May-24 09:33 329 5.6
2015-May-24 09:18 5.6
2015-May-24 09:13 158 5.6
2015-May-24 09:08 135 5.6
2015-May-24 09:03 045 5.6
2015-May-24 08:48 045 6.1
2015-May-24 08:43 045 6.1
2015-May-24 08:38 045 6.1
2015-May-24 08:33 045 6.7
2015-May-24 08:18 045 7.2
2015-May-24 08:13 045 7.2
2015-May-24 08:08 045 7.2
2015-May-24 08:03 045 7.8
2015-May-24 07:48 045 8.3
2015-May-24 07:43 045 8.3
2015-May-24 07:38 045 8.3
2015-May-24 07:33 338 8.9
2015-May-24 07:18 068 10.0
2015-May-24 07:13 068 10.0
2015-May-24 07:08 068 10.6
2015-May-24 07:03 068 11.1
2015-May-24 06:48 068 12.8
2015-May-24 06:43 063 12.8
2015-May-24 06:38 13.3
2015-May-24 06:33 036 13.9
2015-May-24 06:18 309 0 gusting 1 15.6
2015-May-24 06:13 349 0 gusting 1 16.1
2015-May-24 06:08 293 0 gusting 1 17.2
2015-May-24 06:03 337 0 gusting 2 17.2
2015-May-24 05:48 292 1 gusting 2 18.3
2015-May-24 05:43 278 1 gusting 2 18.3
2015-May-24 05:38 303 0 gusting 2 18.9
2015-May-24 05:33 295 1 gusting 2 18.3
2015-May-24 05:18 316 1 gusting 4 18.3
2015-May-24 05:13 299 1 gusting 4 18.3
2015-May-24 05:08 292 1 gusting 4 18.3
2015-May-24 05:03 316 2 gusting 4 18.3
2015-May-24 04:48 269 1 gusting 2 18.3
2015-May-24 04:43 310 1 gusting 2 18.3
2015-May-24 04:38 327 1 gusting 2 18.3
2015-May-24 04:33 326 0 gusting 4 18.3
2015-May-24 04:18 315 1 gusting 4 18.3
2015-May-24 04:13 259 1 gusting 2 18.3
2015-May-24 04:08 285 1 gusting 4 18.3
2015-May-24 04:03 273 1 gusting 4 17.8
2015-May-24 03:48 277 0 gusting 4 17.2
2015-May-24 03:43 300 1 gusting 4 17.8
2015-May-24 03:38 297 1 gusting 2 17.8
2015-May-24 03:33 254 1 gusting 4 17.8
2015-May-24 03:18 307 1 gusting 4 17.2
2015-May-24 03:13 329 2 gusting 4 17.2
2015-May-24 03:08 172 0 gusting 1 17.2
2015-May-24 03:03 101 1 gusting 4 17.2
2015-May-24 02:48 317 1 gusting 4 17.2
2015-May-24 02:43 278 0 gusting 1 17.2
2015-May-24 02:38 318 1 gusting 2 16.7
2015-May-24 02:33 236 0 gusting 4 16.7
2015-May-24 02:18 102 0 gusting 1 16.1
2015-May-24 02:13 121 1 gusting 1 16.1
2015-May-24 02:08 105 0 gusting 1 16.1
2015-May-24 02:03 335 1 gusting 2 15.6
2015-May-24 01:48 302 1 gusting 2 15.0
2015-May-24 01:43 316 1 gusting 2 15.0
2015-May-24 01:38 254 1 gusting 2 14.4
2015-May-24 01:33 246 1 gusting 2 14.4
2015-May-24 01:18 306 0 gusting 2 13.9
2015-May-24 01:13 352 0 gusting 2 13.3
2015-May-24 01:08 261 1 gusting 1 12.8
2015-May-24 01:03 308 1 gusting 2 12.8
2015-May-24 00:48 056 0 gusting 1 11.7
2015-May-24 00:43 285 0 gusting 1 11.1
2015-May-24 00:38 243 1 gusting 4 11.1
2015-May-24 00:33 296 1 gusting 4 11.1
2015-May-24 00:18 250 1 gusting 2 10.0
2015-May-24 00:13 255 0 gusting 1 10.0
2015-May-24 00:08 054 0 gusting 1 9.4
2015-May-24 00:03 315 0 gusting 1 8.9
2015-May-23 23:48 318 0 gusting 1 7.8
2015-May-23 23:43 279 0 gusting 1 7.2
2015-May-23 23:38 259 1 gusting 1 6.7
2015-May-23 23:33 268 1 gusting 2 6.7
2015-May-23 23:18 292 0 gusting 1 5.0
2015-May-23 23:13 306 0 gusting 0 4.4
2015-May-23 23:08 292 0 gusting 0 3.9
2015-May-23 23:03 106 0 gusting 1 3.3
2015-May-23 22:48 090 1.1
2015-May-23 22:43 112 -0.0
2015-May-23 22:38 135 -0.6
2015-May-23 22:33 135 -0.6
2015-May-23 22:18 135 -1.7
2015-May-23 22:13 135 0 gusting 0 -1.7
2015-May-23 22:08 135 0 gusting 0 -2.2
2015-May-23 22:03 135 0 gusting 0 -2.2
2015-May-23 21:48 135 -2.8
2015-May-23 21:43 135 -2.8
2015-May-23 21:38 135 -3.3
2015-May-23 21:33 135 -3.3
2015-May-23 21:18 135 -3.3
2015-May-23 21:13 135 -3.3
2015-May-23 21:08 135 -3.3
2015-May-23 21:03 135 -3.3
2015-May-23 20:48 135 -3.9
2015-May-23 20:43 135 -3.3
2015-May-23 20:38 135 -3.3
2015-May-23 20:33 135 -3.3
2015-May-23 20:18 135 -3.3
2015-May-23 20:13 135 -3.3
2015-May-23 20:08 135 -3.3
2015-May-23 20:03 135 -3.3
2015-May-23 19:48 135 -3.3
2015-May-23 19:43 135 -2.8
2015-May-23 19:38 135 -2.8
2015-May-23 19:33 135 -2.8
2015-May-23 19:18 135 -2.8
2015-May-23 19:13 135 -2.8
2015-May-23 19:08 135 -2.8
2015-May-23 19:03 135 -2.8
2015-May-23 18:48 135 -2.8
2015-May-23 18:43 135 -2.8
2015-May-23 18:38 135 -2.2
2015-May-23 18:33 135 -2.2
2015-May-23 18:18 135 -2.2
2015-May-23 18:13 135 -2.2
2015-May-23 18:08 135 -2.2
2015-May-23 18:03 135 -2.2
2015-May-23 17:48 135 -2.2
2015-May-23 17:43 135 -2.2
2015-May-23 17:38 135 -2.2
2015-May-23 17:33 135 -1.7
2015-May-23 17:18 135 -1.7
2015-May-23 17:13 135 -1.7
2015-May-23 17:08 135 -1.7
2015-May-23 17:03 135 -1.7
2015-May-23 16:48 135 -1.1
2015-May-23 16:43 135 -1.1
2015-May-23 16:08 135 -0.6
2015-May-23 16:03 135 -0.6
2015-May-23 15:48 135 -0.6
2015-May-23 15:43 135 -0.6
2015-May-23 15:38 135 -0.6
2015-May-23 15:18 135 -0.6
2015-May-23 15:13 135 -0.0
2015-May-23 15:08 135 -0.0
2015-May-23 15:03 135 -0.0
2015-May-23 14:48 135 -0.0
2015-May-23 14:33 135 -0.0
2015-May-23 14:18 219 -0.0
2015-May-23 14:13 225 0.6
2015-May-23 13:48 068 0.6
2015-May-23 13:38 036 0.6
2015-May-23 13:33 135 1.1
2015-May-23 13:08 103 1.1
2015-May-23 13:03 090 1.1
2015-May-23 12:48 090 1.7
2015-May-23 12:43 090 1.7
2015-May-23 12:38 090 1.7
2015-May-23 12:33 090 1.7
2015-May-23 12:18 097 1.7
2015-May-23 12:13 241 1.7
2015-May-23 12:03 135 2.2
2015-May-23 11:38 135 2.8
2015-May-23 11:33 135 2.8
2015-May-23 11:18 158 2.8
2015-May-23 11:13 158 2.8
2015-May-23 11:08 158 2.8
2015-May-23 10:48 135 3.3
2015-May-23 10:38 135 3.3
2015-May-23 10:33 3.3
2015-May-23 10:18 176 0 gusting 1 3.9
2015-May-23 10:13 118 0 gusting 0 3.9
2015-May-23 10:08 160 3.9
2015-May-23 10:03 135 3.9
2015-May-23 09:48 135 4.4
2015-May-23 09:43 135 4.4
2015-May-23 09:38 135 4.4
2015-May-23 09:33 135 5.0
2015-May-23 09:18 022 5.0
2015-May-23 09:13 158 5.6
2015-May-23 08:48 158 6.1
2015-May-23 08:43 158 6.1
2015-May-23 08:38 158 6.1
2015-May-23 08:33 158 6.7
2015-May-23 08:18 158 7.2
2015-May-23 08:08 135 7.8
2015-May-23 08:03 090 7.8
2015-May-23 07:48 090 8.9
2015-May-23 07:43 091 9.4
2015-May-23 07:38 112 9.4
2015-May-23 07:18 090 11.1
2015-May-23 07:13 112 11.7
2015-May-23 07:08 221 12.8
2015-May-23 07:03 287 13.3